Location: Haram ta Haram Freeway
(35.0583°N, 51.4202°E)
Time: 23:18:03
(UTC+04:30)

Envisat - Visible Passes

Search period start: 15 May 2021 00:00
Search period end: 25 May 2021 00:00
Orbit: 764 x 766 km, 98.1° (Epoch: 14 May)

Date Brightness Start Highest point End Pass type
(mag) Time Alt. Az. Time Alt. Az. Time Alt. Az.
16 May 5.7 05:23:36 10° NE 05:26:47 17° E 05:29:57 10° SE visible
19 May 5.9 05:13:06 10° ENE 05:15:14 12° E 05:17:20 10° ESE visible
24 May 5.7 05:25:50 10° NE 05:29:16 18° E 05:32:41 10° SE visible
